This is the latest recevied weather packets stored in our database for station/object NR0A-4. If no packets are shown the sender has not sent any weather packets the latest 10 day(s).
| Time | Temp. | Humidity | Pressure | Rain* | Wind** | Luminosity | Snow |
|---|---|---|---|---|---|---|---|
| 1788639904 | 30.56° C | 54% | 1012.4 hPa | 0 mm | - | 668 W/m² | - |
| 1788639604 | 30.56° C | 54% | 1012.4 hPa | 0 mm | - | 691 W/m² | - |
| 1788639304 | 30.56° C | 54% | 1012.7 hPa | 0 mm | - | 751 W/m² | - |
| 1788639005 | 30.56° C | 56% | 1012.8 hPa | 0 mm | - | 707 W/m² | - |
| 1788638704 | 30° C | 56% | 1012.9 hPa | 0 mm | - | 550 W/m² | - |
| 1788638404 | 30° C | 55% | 1012.8 hPa | 0 mm | - | 768 W/m² | - |
| 1788638104 | 29.44° C | 54% | 1012.6 hPa | 0 mm | - | 555 W/m² | - |
| 1788637804 | 29.44° C | 54% | 1012.7 hPa | 0 mm | - | 313 W/m² | - |
| 1788637504 | 29.44° C | 56% | 1012.7 hPa | 0 mm | - | 751 W/m² | - |
| 1788637204 | 28.89° C | 58% | 1012.8 hPa | 0 mm | - | 290 W/m² | - |
| 1788636904 | 28.89° C | 58% | 1012.7 hPa | 0 mm | - | 243 W/m² | - |
| 1788636605 | 28.33° C | 60% | 1013.1 hPa | 0 mm | - | 392 W/m² | - |
| 1788636304 | 27.78° C | 61% | 1013.4 hPa | 0 mm | - | 313 W/m² | - |
| 1788636004 | 27.78° C | 62% | 1013.7 hPa | 0 mm | - | 257 W/m² | - |
| 1788635704 | 27.78° C | 62% | 1013.9 hPa | 0 mm | - | 236 W/m² | - |
| 1788635405 | 27.22° C | 62% | 1014.2 hPa | 0 mm | - | 229 W/m² | - |
| 1788635140 | 27.22° C | 64% | 1014.1 hPa | 0 mm | - | 229 W/m² | - |
| 1788634804 | 27.22° C | 65% | 1014.2 hPa | 0 mm | - | 232 W/m² | - |
| 1788634504 | 27.22° C | 64% | 1014.1 hPa | 0 mm | - | 234 W/m² | - |
| 1788634205 | 26.67° C | 64% | 1014.1 hPa | 0 mm | - | 244 W/m² | - |
| 1788633904 | 26.67° C | 65% | 1014.2 hPa | 0 mm | - | 250 W/m² | - |
| 1788633604 | 26.11° C | 67% | 1014.5 hPa | 0 mm | - | 227 W/m² | - |
| 1788633304 | 26.11° C | 66% | 1014.4 hPa | 0 mm | - | 178 W/m² | - |
| 1788633004 | 25.56° C | 67% | 1014.5 hPa | 0 mm | - | 160 W/m² | - |
| 1788632704 | 25.56° C | 67% | 1014.6 hPa | 0 mm | - | 151 W/m² | - |
* Rain latest hour (hover to see other rain measurements)
** Current wind speed in m/s (hover to see current wind gust speed)